• In Belarus
  • List of Countries
  • For 7 days
  • Water Temperature
  • Satellite Maps
  • Weather Map
  • Weather Widgets
  • user-avatar
    Login

    Hourly Weather Andon

    Today, 25 May, Friday

    Time Temperature Precipitation Wind Pressure Humidity
    00:00 +16°C° 0 mm 2 mps 743 mmHg 75%
    01:00 +16°C° 0 mm 2 mps 743 mmHg 76%
    02:00 +15°C° 0 mm 2 mps 743 mmHg 77%
    03:00 +14°C° 0 mm 1 mps 743 mmHg 81%
    04:00 +14°C° 0 mm 1 mps 743 mmHg 80%
    05:00 +14°C° 0 mm 2 mps 743 mmHg 79%
    06:00 +14°C° 0 mm 2 mps 743 mmHg 78%
    07:00 +16°C° 0 mm 2 mps 744 mmHg 67%
    08:00 +19°C° 0 mm 2 mps 744 mmHg 56%
    09:00 +23°C° 0 mm 2 mps 744 mmHg 46%
    10:00 +25°C° 0 mm 2 mps 744 mmHg 42%
    11:00 +26°C° 0 mm 2 mps 743 mmHg 37%
    12:00 +28°C° 0 mm 2 mps 743 mmHg 33%
    13:00 +28°C° 0 mm 2 mps 743 mmHg 33%
    14:00 +29°C° 0 mm 2 mps 743 mmHg 33%
    15:00 +29°C° 0 mm 2 mps 743 mmHg 32%
    16:00 +27°C° 0 mm 2 mps 743 mmHg 39%
    17:00 +26°C° 0 mm 2 mps 743 mmHg 47%
    18:00 +25°C° 0 mm 1 mps 743 mmHg 54%
    19:00 +23°C° 0 mm 1 mps 743 mmHg 57%
    20:00 +21°C° 0 mm 1 mps 743 mmHg 60%
    21:00 +19°C° 0 mm 1 mps 743 mmHg 61%
    22:00 +19°C° 0 mm 1 mps 743 mmHg 62%
    23:00 +18°C° 0 mm 1 mps 743 mmHg 64%

    Tomorrow, 26 May, Saturday

    Time Temperature Precipitation Wind Pressure Humidity
    00:00 +16°C° 0 mm 1 mps 743 mmHg 65%
    01:00 +16°C° 0 mm 1 mps 743 mmHg 65%
    02:00 +14°C° 0 mm 0 mps 743 mmHg 65%
    03:00 +14°C° 0 mm 0 mps 743 mmHg 65%
    04:00 +14°C° 0 mm 0 mps 743 mmHg 66%
    05:00 +14°C° 0 mm 0 mps 744 mmHg 67%
    06:00 +15°C° 0 mm 1 mps 744 mmHg 68%
    07:00 +17°C° 0 mm 0 mps 744 mmHg 62%
    08:00 +20°C° 0 mm 0 mps 744 mmHg 55%
    09:00 +23°C° 0 mm 0 mps 745 mmHg 48%
    10:00 +27°C° 0 mm 1 mps 745 mmHg 44%
    11:00 +28°C° 0 mm 1 mps 745 mmHg 40%
    12:00 +30°C° 0 mm 1 mps 745 mmHg 36%
    13:00 +30°C° 0 mm 1 mps 744 mmHg 36%
    14:00 +30°C° 0 mm 1 mps 744 mmHg 36%
    15:00 +31°C° 0 mm 1 mps 744 mmHg 36%
    16:00 +30°C° 0 mm 1 mps 744 mmHg 42%
    17:00 +28°C° 0 mm 1 mps 744 mmHg 48%
    18:00 +27°C° 0 mm 1 mps 744 mmHg 54%
    19:00 +25°C° 0 mm 1 mps 745 mmHg 61%
    20:00 +22°C° 0 mm 1 mps 745 mmHg 67%
    21:00 +20°C° 0 mm 1 mps 745 mmHg 74%
    22:00 +19°C° 0 mm 1 mps 745 mmHg 75%
    23:00 +19°C° 0 mm 1 mps 745 mmHg 77%

    Day after tomorrow, 27 May, Sunday

    Time Temperature Precipitation Wind Pressure Humidity
    00:00 +16°C° 0 mm 0 mps 745 mmHg 78%
    01:00 +16°C° 0 mm 0 mps 745 mmHg 78%
    02:00 +16°C° 0 mm 0 mps 745 mmHg 77%
    03:00 +16°C° 0 mm 0 mps 745 mmHg 77%
    04:00 +16°C° 0 mm 0 mps 745 mmHg 76%
    05:00 +16°C° 0 mm 0 mps 745 mmHg 76%
    06:00 +16°C° 0 mm 0 mps 745 mmHg 76%
    07:00 +18°C° 0 mm 0 mps 745 mmHg 70%
    08:00 +21°C° 0 mm 0 mps 745 mmHg 63%
    09:00 +23°C° 0 mm 0 mps 745 mmHg 57%
    10:00 +26°C° 0 mm 1 mps 745 mmHg 52%
    11:00 +28°C° 0 mm 1 mps 745 mmHg 47%
    12:00 +29°C° 0 mm 2 mps 745 mmHg 43%
    13:00 +30°C° 0 mm 2 mps 745 mmHg 42%
    14:00 +30°C° 0 mm 2 mps 745 mmHg 40%
    15:00 +30°C° 0 mm 2 mps 744 mmHg 39%
    16:00 +29°C° 0 mm 2 mps 744 mmHg 45%
    17:00 +28°C° 0 mm 2 mps 744 mmHg 52%
    18:00 +27°C° 0 mm 1 mps 743 mmHg 58%
    19:00 +25°C° 0 mm 1 mps 744 mmHg 62%
    20:00 +23°C° 0 mm 1 mps 744 mmHg 67%
    21:00 +21°C° 0 mm 1 mps 744 mmHg 71%
    22:00 +20°C° 0 mm 1 mps 744 mmHg 73%
    23:00 +20°C° 0 mm 1 mps 744 mmHg 75%

    28 May, Monday

    Time Temperature Precipitation Wind Pressure Humidity
    00:00 +19°C° 0 mm 1 mps 744 mmHg 77%
    01:00 +19°C° 0 mm 1 mps 744 mmHg 78%
    02:00 +18°C° 0 mm 1 mps 744 mmHg 78%
    03:00 +18°C° 0 mm 1 mps 743 mmHg 79%
    04:00 +18°C° 0 mm 1 mps 744 mmHg 79%
    05:00 +18°C° 0 mm 1 mps 744 mmHg 78%
    06:00 +18°C° 0 mm 1 mps 744 mmHg 78%
    07:00 +20°C° 0 mm 1 mps 744 mmHg 70%
    08:00 +23°C° 0 mm 1 mps 744 mmHg 63%
    09:00 +26°C° 0 mm 1 mps 744 mmHg 55%
    10:00 +27°C° 0 mm 1 mps 744 mmHg 52%
    11:00 +29°C° 0 mm 1 mps 744 mmHg 48%
    12:00 +30°C° 0 mm 1 mps 744 mmHg 45%
    13:00 +30°C° 0 mm 1 mps 744 mmHg 46%
    14:00 +29°C° 0 mm 2 mps 743 mmHg 48%
    15:00 +29°C° 0 mm 2 mps 743 mmHg 49%
    16:00 +28°C° 0.1 mm 2 mps 743 mmHg 55%
    17:00 +28°C° 0.1 mm 2 mps 743 mmHg 61%
    18:00 +27°C° 0.1 mm 2 mps 743 mmHg 67%
    19:00 +25°C° 0.2 mm 2 mps 743 mmHg 75%
    20:00 +23°C° 0.2 mm 2 mps 743 mmHg 82%
    21:00 +21°C° 0.2 mm 1 mps 744 mmHg 90%
    22:00 +21°C° 0 mm 1 mps 744 mmHg 91%
    23:00 +20°C° 0 mm 1 mps 744 mmHg 92%

    29 May, Tuesday

    Time Temperature Precipitation Wind Pressure Humidity
    00:00 +20°C° 0 mm 1 mps 744 mmHg 94%
    01:00 +19°C° 0 mm 1 mps 743 mmHg 94%
    02:00 +19°C° 0 mm 1 mps 743 mmHg 95%
    03:00 +18°C° 0 mm 1 mps 743 mmHg 96%
    04:00 +18°C° 0 mm 1 mps 743 mmHg 95%
    05:00 +18°C° 0 mm 1 mps 743 mmHg 95%
    06:00 +18°C° 0 mm 1 mps 743 mmHg 95%
    07:00 +20°C° 0 mm 1 mps 744 mmHg 88%
    08:00 +20°C° 0 mm 2 mps 744 mmHg 82%
    09:00 +22°C° 0 mm 3 mps 744 mmHg 75%
    10:00 +24°C° 0 mm 3 mps 744 mmHg 65%
    11:00 +26°C° 0 mm 4 mps 744 mmHg 55%
    12:00 +27°C° 0 mm 4 mps 744 mmHg 45%
    13:00 +27°C° 0 mm 4 mps 744 mmHg 42%
    14:00 +27°C° 0 mm 4 mps 743 mmHg 38%
    15:00 +28°C° 0 mm 4 mps 743 mmHg 35%
    16:00 +27°C° 0 mm 4 mps 743 mmHg 40%
    17:00 +26°C° 0 mm 3 mps 743 mmHg 45%
    18:00 +25°C° 0 mm 3 mps 743 mmHg 50%
    19:00 +23°C° 0 mm 2 mps 743 mmHg 54%
    20:00 +20°C° 0 mm 2 mps 744 mmHg 58%
    21:00 +18°C° 0 mm 2 mps 744 mmHg 62%
    22:00 +17°C° 0 mm 2 mps 744 mmHg 64%
    23:00 +16°C° 0 mm 2 mps 744 mmHg 66%

    30 May, Wednesday

    Time Temperature Precipitation Wind Pressure Humidity
    00:00 +15°C° 0 mm 1 mps 744 mmHg 68%
    01:00 +15°C° 0 mm 1 mps 744 mmHg 70%
    02:00 +14°C° 0 mm 1 mps 744 mmHg 71%
    03:00 +14°C° 0 mm 1 mps 744 mmHg 73%
    04:00 +14°C° 0 mm 1 mps 744 mmHg 75%
    05:00 +14°C° 0 mm 1 mps 744 mmHg 77%
    06:00 +14°C° 0 mm 1 mps 744 mmHg 79%
    07:00 +16°C° 0 mm 2 mps 744 mmHg 72%
    08:00 +19°C° 0 mm 2 mps 745 mmHg 65%
    09:00 +21°C° 0 mm 3 mps 745 mmHg 59%
    10:00 +22°C° 0 mm 3 mps 745 mmHg 55%
    11:00 +25°C° 0 mm 4 mps 745 mmHg 51%
    12:00 +26°C° 0 mm 4 mps 744 mmHg 46%
    13:00 +26°C° 0 mm 4 mps 744 mmHg 47%
    14:00 +26°C° 0 mm 4 mps 744 mmHg 48%
    15:00 +26°C° 0 mm 4 mps 744 mmHg 49%
    16:00 +25°C° 0 mm 3 mps 744 mmHg 54%
    17:00 +25°C° 0 mm 2 mps 744 mmHg 58%
    18:00 +24°C° 0 mm 1 mps 744 mmHg 62%
    19:00 +22°C° 0 mm 1 mps 745 mmHg 68%
    20:00 +20°C° 0 mm 1 mps 745 mmHg 74%
    21:00 +18°C° 0 mm 1 mps 745 mmHg 81%
    22:00 +16°C° 0 mm 1 mps 745 mmHg 83%
    23:00 +16°C° 0 mm 1 mps 746 mmHg 85%
    Show more